Location: Columbia
(38.9520°N, 92.3340°W)
Time: 17:15:29
(UTC-05:00)

Cosmos 1633 - Visible Passes

Search period start: 01 August 2015 00:00
Search period end: 11 August 2015 00:00
Orbit: 481 x 504 km, 82.5° (Epoch: 01 August)

Date Brightness Start Highest point End Pass type
(mag) Time Alt. Az. Time Alt. Az. Time Alt. Az.
01 Aug 5.5 00:30:54 16° NNW 00:30:54 16° NNW 00:31:51 10° NNW visible
02 Aug 5.3 00:08:41 18° NNW 00:08:41 18° NNW 00:09:49 10° N visible
02 Aug 5.1 23:46:26 20° N 23:46:26 20° N 23:47:38 10° N visible
03 Aug 4.9 23:24:10 19° NNE 23:24:10 19° NNE 23:25:21 10° NNE visible
04 Aug 4.9 23:01:53 17° NNE 23:01:53 17° NNE 23:02:56 10° NNE visible
05 Aug 5.0 22:39:34 14° NE 22:39:34 14° NE 22:40:21 10° NNE visible
06 Aug 5.7 00:14:05 13° NW 00:14:05 13° NW 00:14:49 10° NW visible
06 Aug 5.1 22:17:14 11° NE 22:17:14 11° NE 22:17:31 10° NE visible
06 Aug 5.3 23:51:44 17° NW 23:51:44 17° NW 23:53:06 10° NNW visible
07 Aug 4.9 23:29:22 23° NNW 23:29:22 23° NNW 23:31:07 10° N visible
08 Aug 4.4 23:06:58 30° NNW 23:06:58 30° NNW 23:08:59 10° N visible
09 Aug 3.9 22:44:31 34° N 22:44:31 34° N 22:46:42 10° N visible
10 Aug 3.7 22:22:02 34° NE 22:22:02 34° NE 22:24:18 10° NNE visible
